{"data":{"norad_id":43636,"intl_designator":"2018-075A","name":"CENTISPACE-1 S1","alt_names":[],"object_type":"PAYLOAD","status":"ACTIVE","operator":null,"country":"PRC","launch_date":"2018-09-29","launch_site_code":"JSC","launch_vehicle":null,"mission":null,"orbit_class":"UNKNOWN","rcs_meters":null,"size_class":null,"mass_kg":null,"dimensions":null,"purposes":[],"wikipedia_slug":null,"has_3d_model":false,"image_url":null,"decayed_at":null,"tle_current":{"epoch":"2026-09-20T03:55:12.440352Z","epoch_age_seconds":84001,"freshness":"FRESH","line1":"1 43636U 18075A   26263.16333843  .00000278  00000+0  66858-4 0  9996","line2":"2 43636  97.8706 282.1712 0008654 172.8124 187.3202 14.60072321424416","mean_motion":14.60072321,"eccentricity":0.0008654,"inclination_deg":97.8706,"raan_deg":282.1712,"arg_perigee_deg":172.8124,"mean_anomaly_deg":187.3202,"bstar":6.6858e-5,"rev_number":42441,"period_min":98.625251591219,"perigee_km":686.82116987677,"apogee_km":699.05979077972,"semimajor_km":7071.0774803282,"source":"CELESTRAK","updated_at":"2026-09-20T09:00:14.363525Z"}}}